星链-31187 (STARLINK-31187 )

导读 | 星芒AI

STARLINK-31187 是 SpaceX Starlink 项目中的一颗低轨道通信卫星,属于其第二代卫星星座计划的一部分。该卫星于2023年发射,旨在为全球用户提供高速、低延迟的互联网服务。它运行在约550公里高的近地轨道,采用先进推进系统和激光通信技术,以提升网络效率和稳定性。作为 Starlink 网络的重要节点,STARLINK-31187 支持偏远地区的宽带接入,助力全球数字连接。

基本信息
目录编号:
58790
目录名称:
STARLINK-31187
国际标识:
2024-012D
轨道中心:
EARTH
卫星名称:
星链-31187
卫星全名:
星链-31187 (STARLINK-31187 )
卫星状态:
在轨 (已飞行655 天)
发射日期:
2024-01-15 UTC
国别 :
美国 (US)
星等 :
--
轨道信息
数据来源 国际轨道数据
星历时间: 2025-10-31T23:05:49+0800
5小时前
查看轨道信息
半长轴: 6861.188km
偏心率: 0.0000521
轨道倾角: 43.002°
近地点辐角 22.523°
升交点赤经 174.479°
平近点角 337.564°
近地点: 482.695km
远地点: 483.411km
周期: 94.267分钟
每日圈数: 15.275796
详细信息
固有亮度:
5
最大亮度:
0.3
卫星平台:
Starlink v2.0 mini
覆盖范围:
全球
运营商:
太空探索技术公司
运营商所在国:
美国
制造商(研发单位):
太空探索技术公司
制造商所在国:
美国
使用方式:
暂无
卫星简介
星链(Starlink)计划是由太空探索技术公司(SpaceX)提出的一个巨型低轨卫星互联网星座项目,计划在2019年至2024年间在太空搭建由约1.2万颗卫星组成的“星链”网络,其中1584颗将部署在地球上空550千米处的近地轨道,并从2020年开始工作。该卫星仍在工作。
2D轨道图
3D轨道图
轨道高度分析图
轨道倾角分析图
轨道综合分析图
查看轨道综合分析图